KI0MQ Weather Reports


time (UTC)temp
C
wind
direction
speed
KPH
gust
KPH
rain 1hr
cm
rain 24hr
cm
rain mn
cm
humidity
%
barometer
mb
20260506223009 15 341 1.6 8.0 0.00 0.00 0.00 32 1015.9
20260506222503 15 319 4.8 14.5 0.00 0.00 0.00 32 1015.9
20260506222003 15 328 6.4 14.5 0.00 0.00 0.00 32 1015.9
20260506221508 15 352 3.2 14.5 0.00 0.00 0.00 31 1016.1
20260506220505 15 335 1.6 9.7 0.00 0.00 0.00 33 1016.1
20260506220008 15 332 3.2 11.3 0.00 0.00 0.00 32 1016.1
20260506215503 15 344 3.2 11.3 0.00 0.00 0.00 33 1016.2
20260506215003 15 359 3.2 9.7 0.00 0.00 0.00 34 1016.1
20260506214509 15 358 3.2 16.1 0.00 0.00 0.00 31 1016.2
20260506213503 15 319 3.2 14.5 0.00 0.00 0.00 32 1016.3
20260506213008 15 324 4.8 17.7 0.00 0.00 0.00 31 1016.4
20260506212504 15 327 4.8 17.7 0.00 0.00 0.00 31 1016.3
20260506212003 16 326 3.2 14.5 0.00 0.00 0.00 32 1016.5
20260506211004 15 327 1.6 9.7 0.00 0.00 0.00 31 1016.6
20260506210503 15 329 3.2 12.9 0.00 0.00 0.00 32 1016.6
20260506210008 15 339 3.2 16.1 0.00 0.00 0.00 32 1016.8
20260506205505 15 332 3.2 16.1 0.00 0.00 0.00 33 1016.8
20260506205004 15 323 3.2 8.0 0.00 0.00 0.00 32 1016.9
20260506204510 15 303 3.2 12.9 0.00 0.00 0.00 34 1016.9
20260506204003 15 346 3.2 12.9 0.00 0.00 0.00 31 1017.1
20260506203503 15 26 1.6 9.7 0.00 0.00 0.00 33 1017.0
20260506203009 15 350 3.2 11.3 0.00 0.00 0.00 33 1017.1
20260506202504 15 352 4.8 19.3 0.00 0.00 0.00 31 1017.2
20260506202003 15 328 4.8 19.3 0.00 0.00 0.00 32 1017.1
20260506201508 16 260 3.2 11.3 0.00 0.00 0.00 31 1017.2
20260506201003 16 290 4.8 20.9 0.00 0.00 0.00 31 1017.2
20260506200504 15 335 4.8 20.9 0.00 0.00 0.00 38 1017.2
20260506200008 15 323 3.2 16.1 0.00 0.00 0.00 33 1017.2
20260506195503 15 328 4.8 16.1 0.00 0.00 0.00 32 1017.3
20260506195003 15 336 4.8 12.9 0.00 0.00 0.00 33 1017.6
20260506194509 15 319 4.8 14.5 0.00 0.00 0.00 33 1017.5
20260506194003 15 316 6.4 17.7 0.00 0.00 0.00 32 1017.5
20260506193503 15 310 4.8 17.7 0.00 0.00 0.00 33 1017.5
20260506193009 15 273 3.2 12.9 0.00 0.00 0.00 36 1017.5
20260506192504 15 307 4.8 14.5 0.00 0.00 0.00 35 1017.5
20260506192004 15 335 3.2 14.5 0.00 0.00 0.00 34 1017.5
20260506191003 15 312 4.8 22.5 0.00 0.00 0.00 34 1017.6
20260506190503 15 313 4.8 22.5 0.00 0.00 0.00 34 1017.6
20260506190008 15 307 4.8 14.5 0.00 0.00 0.00 33 1017.7
20260506185003 15 330 4.8 16.1 0.00 0.00 0.00 34 1017.8
20260506184509 15 327 4.8 16.1 0.00 0.00 0.00 34 1017.8
20260506183503 15 290 3.2 14.5 0.00 0.00 0.00 34 1017.8
20260506183008 14 287 3.2 14.5 0.00 0.00 0.00 35 1017.9
20260506182504 13 304 3.2 11.3 0.00 0.00 0.00 36 1018.0
20260506182003 14 298 3.2 12.9 0.00 0.00 0.00 38 1018.1
20260506181509 14 270 3.2 12.9 0.00 0.00 0.00 38 1018.0
20260506181004 14 354 4.8 17.7 0.00 0.00 0.00 42 1018.1
20260506180503 13 9 6.4 17.7 0.00 0.00 0.00 37 1018.2
20260506180009 12 5 4.8 17.7 0.00 0.00 0.00 38 1018.2
20260506174508 13 288 1.6 17.7 0.00 0.00 0.00 37 1018.5
20260506174004 13 301 1.6 9.7 0.00 0.00 0.00 37 1018.6
20260506173503 13 338 1.6 9.7 0.00 0.00 0.00 39 1018.6
20260506173008 13 12 1.6 9.7 0.00 0.00 0.00 44 1018.6
20260506172504 13 356 3.2 14.5 0.00 0.00 0.00 40 1018.7
20260506171003 13 309 3.2 9.7 0.00 0.00 0.00 41 1018.8
20260506170504 13 319 3.2 8.0 0.00 0.00 0.00 41 1018.9
20260506170009 12 322 3.2 9.7 0.00 0.00 0.00 40 1018.9
20260506165503 12 276 3.2 9.7 0.00 0.00 0.00 40 1019.0
20260506165003 12 270 3.2 9.7 0.00 0.00 0.00 43 1018.9
20260506164509 12 3 4.8 12.9 0.00 0.00 0.00 41 1019.0
20260506164003 12 9 4.8 14.5 0.00 0.00 0.00 42 1019.0
20260506162503 12 336 1.6 9.7 0.00 0.00 0.00 42 1019.0
20260506162003 12 311 1.6 8.0 0.00 0.00 0.00 43 1019.1
20260506161508 11 2 3.2 19.3 0.00 0.00 0.00 43 1019.1
20260506161004 11 7 4.8 19.3 0.00 0.00 0.00 45 1019.1
20260506160503 11 347 3.2 11.3 0.00 0.00 0.00 43 1019.0
20260506160008 11 342 3.2 12.9 0.00 0.00 0.00 43 1019.0
20260506155503 11 330 1.6 12.9 0.00 0.00 0.00 44 1018.9
20260506155004 11 318 1.6 8.0 0.00 0.00 0.00 51 1018.9
20260506154508 11 350 1.6 8.0 0.00 0.00 0.00 47 1018.9
20260506154004 11 10 1.6 8.0 0.00 0.00 0.00 46 1018.9
20260506153008 10 355 3.2 9.7 0.00 0.00 0.00 47 1019.1
20260506152503 10 347 3.2 9.7 0.00 0.00 0.00 47 1019.0
20260506152004 10 325 3.2 11.3 0.00 0.00 0.00 47 1019.0
20260506151508 10 332 3.2 12.9 0.00 0.00 0.00 47 1019.1
20260506151003 10 356 3.2 12.9 0.00 0.00 0.00 54 1019.0
20260506150503 10 1 3.2 9.7 0.00 0.00 0.00 49 1019.0
20260506145504 10 339 3.2 9.7 0.00 0.00 0.00 48 1019.0
20260506145004 10 317 1.6 8.0 0.00 0.00 0.00 49 1019.1
20260506144508 9 299 0.0 4.8 0.00 0.00 0.00 50 1019.0
20260506144004 9 356 1.6 6.4 0.00 0.00 0.00 52 1019.1
20260506143503 8 2 1.6 6.4 0.00 0.00 0.00 52 1019.0
20260506143009 8 7 1.6 9.7 0.00 0.00 0.00 54 1019.0
20260506142504 8 350 0.0 9.7 0.00 0.00 0.00 54 1019.0
20260506142003 8 329 1.6 4.8 0.00 0.00 0.00 55 1019.0
20260506141003 8 354 1.6 6.4 0.00 0.00 0.00 54 1018.8
20260506140503 8 321 0.0 4.8 0.00 0.00 0.00 55 1018.8
20260506135504 7 322 1.6 6.4 0.00 0.00 0.00 58 1018.7
20260506135003 7 339 0.0 3.2 0.00 0.00 0.00 59 1018.8
20260506134003 7 328 0.0 4.8 0.00 0.00 0.00 60 1018.6
20260506133504 6 333 1.6 4.8 0.00 0.00 0.00 62 1018.6
20260506133008 6 343 1.6 6.4 0.00 0.00 0.00 61 1018.5
20260506132503 6 340 1.6 8.0 0.00 0.00 0.00 62 1018.5
20260506132005 6 338 1.6 8.0 0.00 0.00 0.00 62 1018.4
20260506131508 6 350 3.2 6.4 0.00 0.00 0.00 62 1018.3
20260506131003 5 351 1.6 6.4 0.00 0.00 0.00 64 1018.3
20260506130503 5 349 1.6 4.8 0.00 0.00 0.00 64 1018.2
20260506125505 5 346 0.0 4.8 0.00 0.00 0.00 68 1018.2
20260506125003 4 312 0.0 3.2 0.00 0.00 0.00 69 1018.2
20260506124508 4 306 0.0 3.2 0.00 0.00 0.00 71 1018.2
20260506124004 3 287 0.0 3.2 0.00 0.00 0.00 72 1018.1
20260506123503 3 285 0.0 4.8 0.00 0.00 0.00 74 1018.0
20260506122003 2 350 0.0 1.6 0.00 0.00 0.00 79 1017.7
20260506121508 2 350 0.0 1.6 0.00 0.00 0.00 80 1017.7
20260506121003 2 0 0.0 0.0 0.00 0.00 0.00 81 1017.6
20260506120503 1 0 0.0 0.0 0.00 0.00 0.00 81 1017.5
20260506120008 1 0 0.0 0.0 0.00 0.00 0.00 81 1017.4
20260506115003 1 0 0.0 0.0 0.00 0.00 0.00 80 1017.2
20260506114508 1 0 0.0 0.0 0.00 0.00 0.00 79 1017.2
20260506114003 1 0 0.0 0.0 0.00 0.00 0.00 79 1017.2
20260506113503 1 0 0.0 0.0 0.00 0.00 0.00 78 1017.1
20260506113008 1 0 0.0 0.0 0.00 0.00 0.00 78 1017.1
20260506112504 1 0 0.0 0.0 0.00 0.00 0.00 77 1017.0
20260506112003 1 0 0.0 0.0 0.00 0.00 0.00 76 1016.9
20260506111003 2 0 0.0 0.0 0.00 0.00 0.00 76 1017.0
20260506110503 2 0 0.0 0.0 0.00 0.00 0.00 76 1016.9
20260506110008 2 0 0.0 0.0 0.00 0.00 0.00 76 1017.0
20260506105503 2 0 0.0 0.0 0.00 0.00 0.00 75 1017.0
20260506105003 2 0 0.0 0.0 0.00 0.00 0.00 76 1016.9
20260506104508 2 0 0.0 0.0 0.00 0.00 0.00 75 1016.9
20260506104004 2 0 0.0 0.0 0.00 0.00 0.00 75 1017.0
20260506103503 2 0 0.0 0.0 0.00 0.00 0.00 74 1016.9
20260506103008 3 0 0.0 0.0 0.00 0.00 0.00 74 1016.9
20260506102503 3 0 0.0 0.0 0.00 0.00 0.00 73 1016.9
20260506101508 3 0 0.0 0.0 0.00 0.00 0.00 75 1016.8
20260506101003 3 0 0.0 0.0 0.00 0.00 0.00 76 1016.7
20260506100503 3 0 0.0 0.0 0.00 0.00 0.00 74 1016.7
20260506100009 3 0 0.0 0.0 0.00 0.00 0.00 73 1016.7
20260506095503 3 0 0.0 0.0 0.00 0.00 0.00 73 1016.6
20260506095004 4 0 0.0 0.0 0.00 0.00 0.00 73 1016.6
20260506094509 4 0 0.0 0.0 0.00 0.00 0.00 74 1016.5
20260506094003 4 0 0.0 0.0 0.00 0.00 0.00 72 1016.6
20260506093008 4 0 0.0 0.0 0.00 0.00 0.00 71 1016.4
20260506092004 4 0 0.0 0.0 0.00 0.00 0.00 70 1016.3
20260506091005 5 0 0.0 0.0 0.00 0.00 0.00 69 1016.2
20260506090503 5 0 0.0 0.0 0.00 0.00 0.00 69 1016.1
20260506090009 5 0 0.0 0.0 0.00 0.00 0.00 68 1016.1
20260506085503 5 0 0.0 0.0 0.00 0.00 0.00 66 1016.0
20260506085003 5 0 0.0 0.0 0.00 0.00 0.00 65 1016.0
20260506084508 5 0 0.0 0.0 0.00 0.00 0.00 65 1016.0
20260506084003 5 0 0.0 0.0 0.00 0.00 0.00 64 1015.9
20260506083504 5 0 0.0 0.0 0.00 0.00 0.00 63 1015.9
20260506083008 6 0 0.0 0.0 0.00 0.00 0.00 63 1015.9
20260506082503 6 0 0.0 0.0 0.00 0.00 0.00 62 1015.9
20260506082004 6 0 0.0 0.0 0.00 0.00 0.00 62 1015.8
20260506081003 6 0 0.0 0.0 0.00 0.00 0.00 62 1015.8
20260506080503 6 0 0.0 0.0 0.00 0.00 0.00 60 1015.9
20260506073503 7 350 0.0 1.6 0.00 0.00 0.00 54 1015.6
20260506073008 7 0 0.0 0.0 0.00 0.00 0.00 52 1015.6
20260506072503 7 351 0.0 1.6 0.00 0.00 0.00 52 1015.6
20260506072003 7 350 0.0 1.6 0.00 0.00 0.00 52 1015.6
20260506071508 7 347 0.0 1.6 0.00 0.00 0.00 51 1015.6
20260506071004 7 345 0.0 1.6 0.00 0.00 0.00 52 1015.5
20260506062504 8 2 0.0 4.8 0.00 0.00 0.00 50 1015.6
20260506062004 8 2 0.0 4.8 0.00 0.00 0.00 50 1015.5
20260506061507 8 348 0.0 4.8 0.00 0.00 0.00 49 1015.5
20260506061004 8 341 0.0 4.8 0.00 0.03 0.00 49 1015.5
20260506060504 8 8 0.0 4.8 0.00 0.03 0.00 50 1015.5
20260506045003 8 345 0.0 1.6 0.00 0.03 0.03 52 1014.7
20260506044508 8 345 0.0 1.6 0.00 0.08 0.03 52 1014.7
20260506044003 8 345 0.0 1.6 0.00 0.08 0.03 52 1014.7
20260506043504 9 345 0.0 1.6 0.00 0.08 0.03 52 1014.6
20260506043008 9 350 0.0 1.6 0.00 0.08 0.03 50 1014.7
20260506042503 9 3 0.0 1.6 0.00 0.10 0.03 49 1014.7
20260506042003 9 3 0.0 1.6 0.00 0.10 0.03 49 1014.6
20260506041508 9 2 0.0 1.6 0.00 0.10 0.03 53 1014.6
20260506041004 9 4 0.0 3.2 0.00 0.10 0.03 48 1014.4
20260506040504 9 7 0.0 3.2 0.00 0.10 0.03 48 1014.5
20260506040008 10 9 0.0 1.6 0.00 0.10 0.03 47 1014.4
20260506035503 10 9 0.0 1.6 0.00 0.10 0.03 48 1014.4
20260506035003 10 9 0.0 1.6 0.00 0.10 0.03 46 1014.5
20260506034508 10 346 0.0 3.2 0.00 0.10 0.03 46 1014.5
20260506034003 10 353 0.0 3.2 0.00 0.10 0.03 45 1014.4
20260506033008 10 16 0.0 1.6 0.00 0.10 0.03 44 1014.3
20260506032503 10 5 0.0 3.2 0.00 0.10 0.03 44 1014.2
20260506032003 10 1 1.6 6.4 0.00 0.10 0.03 44 1014.1
20260506031005 10 345 1.6 8.0 0.00 0.10 0.03 43 1014.0
20260506030504 10 348 1.6 6.4 0.00 0.10 0.03 43 1013.9
20260506030008 10 6 1.6 6.4 0.00 0.10 0.03 43 1013.8
20260506025503 10 7 1.6 6.4 0.00 0.10 0.03 43 1013.8
20260506025004 10 3 1.6 9.7 0.00 0.10 0.03 43 1013.7
20260506024507 11 347 1.6 9.7 0.00 0.10 0.03 43 1013.7
20260506024004 11 349 1.6 8.0 0.00 0.10 0.03 42 1013.6
20260506023504 11 359 1.6 8.0 0.00 0.10 0.03 42 1013.5
20260506023008 11 356 1.6 9.7 0.00 0.10 0.03 42 1013.5
20260506022504 11 10 1.6 9.7 0.00 0.10 0.03 42 1013.4
20260506021509 11 4 1.6 8.0 0.00 0.10 0.03 41 1013.3
20260506021003 11 15 1.6 6.4 0.00 0.10 0.03 41 1013.2
20260506020008 11 16 1.6 8.0 0.00 0.10 0.03 40 1013.2
20260506015505 11 10 1.6 6.4 0.00 0.10 0.03 41 1013.1
20260506015003 11 359 3.2 9.7 0.00 0.10 0.03 40 1013.1
20260506014509 11 356 3.2 9.7 0.00 0.10 0.03 40 1012.9
20260506014003 11 355 3.2 9.7 0.00 0.10 0.03 40 1012.8
20260506013504 11 357 3.2 9.7 0.00 0.10 0.03 40 1012.7
20260506012503 11 9 3.2 12.9 0.00 0.10 0.03 40 1012.6
20260506012003 11 17 3.2 14.5 0.00 0.10 0.03 40 1012.6
20260506011508 11 15 3.2 16.1 0.00 0.10 0.03 40 1012.6
20260506011003 12 356 3.2 16.1 0.00 0.10 0.03 40 1012.5
20260506010504 12 353 4.8 16.1 0.00 0.10 0.03 40 1012.4
20260506005504 12 358 4.8 14.5 0.00 0.10 0.03 40 1012.5
20260506005003 12 355 4.8 11.3 0.00 0.10 0.03 41 1012.5
20260506003503 12 358 4.8 11.3 0.00 0.10 0.03 39 1012.3
20260506003008 12 16 4.8 19.3 0.00 0.10 0.03 39 1012.2
20260506002503 12 7 6.4 19.3 0.00 0.10 0.03 39 1012.3
20260506002004 12 353 6.4 17.7 0.00 0.10 0.03 39 1012.1
20260506001508 12 356 3.2 16.1 0.00 0.10 0.03 39 1012.2
20260506001003 12 359 4.8 16.1 0.00 0.10 0.03 40 1012.2
20260506000008 12 344 4.8 20.9 0.00 0.10 0.03 39 1012.2
20260505235503 12 355 4.8 14.5 0.00 0.10 0.03 40 1012.1
20260505235005 12 4 4.8 17.7 0.00 0.10 0.03 39 1012.1
20260505234508 12 10 4.8 22.5 0.00 0.10 0.03 39 1012.1
20260505234003 12 3 4.8 22.5 0.00 0.10 0.03 38 1012.1
20260505233504 12 343 6.4 22.5 0.00 0.10 0.03 38 1012.0
20260505233008 13 349 6.4 20.9 0.00 0.10 0.03 39 1011.9
20260505232504 13 5 6.4 22.5 0.00 0.10 0.03 39 1011.9
20260505232003 13 357 4.8 22.5 0.00 0.10 0.03 38 1011.9
20260505231508 13 354 4.8 14.5 0.00 0.10 0.03 40 1011.8
20260505231003 13 357 8.0 24.1 0.00 0.10 0.03 40 1011.8
20260505230009 13 351 6.4 19.3 0.00 0.10 0.03 38 1011.8
20260505225504 13 350 4.8 14.5 0.00 0.10 0.03 37 1011.8
20260505225003 14 345 4.8 14.5 0.00 0.10 0.03 38 1011.7
20260505224508 14 336 3.2 14.5 0.00 0.10 0.03 38 1011.6
20260505223503 14 332 3.2 12.9 0.00 0.10 0.03 39 1011.6